This is the latest recevied weather packets stored in our database for station/object SV1RVP-13. If no packets are shown the sender has not sent any weather packets the latest 10 day(s).
| Time | Temp. | Humidity | Pressure | Rain* | Wind** | Luminosity | Snow |
|---|---|---|---|---|---|---|---|
| 1777888113 | 17.78° C | 43% | 1019.1 hPa | 0 mm | - | - | - |
| 1777887513 | 17.78° C | 42% | 1019.2 hPa | 0 mm | - | - | - |
| 1777886912 | 17.78° C | 42% | 1019.3 hPa | 0 mm | - | - | - |
| 1777886335 | 17.22° C | 42% | 1019.2 hPa | 0 mm | - | - | - |
| 1777885705 | 17.22° C | 43% | 1019.2 hPa | 0 mm | - | - | - |
| 1777885119 | 17.22° C | 43% | 1019.4 hPa | 0 mm | - | - | - |
| 1777884536 | 17.22° C | 44% | 1019.2 hPa | 0 mm | - | - | - |
| 1777883907 | 16.67° C | 46% | 1019.2 hPa | 0 mm | - | - | - |
| 1777883308 | 16.67° C | 44% | 1019.2 hPa | 0 mm | - | - | - |
| 1777882735 | 16.67° C | 46% | 1019.3 hPa | 0 mm | - | - | - |
| 1777882125 | 17.22° C | 47% | 1019.2 hPa | 0 mm | - | - | - |
| 1777881524 | 16.11° C | 48% | 1019.2 hPa | 0 mm | - | - | - |
| 1777880911 | 16.11° C | 49% | 1019.3 hPa | 0 mm | - | - | - |
| 1777880312 | 16.11° C | 50% | 1019.3 hPa | 0 mm | - | - | - |
| 1777879716 | 15.56° C | 50% | 1019.2 hPa | 0 mm | - | - | - |
| 1777879134 | 15.56° C | 50% | 1019.1 hPa | 0 mm | - | - | - |
| 1777878525 | 15.56° C | 52% | 1019.1 hPa | 0 mm | - | - | - |
| 1777877918 | 15° C | 53% | 1019 hPa | 0 mm | - | - | - |
| 1777877335 | 15° C | 53% | 1019 hPa | 0 mm | - | - | - |
| 1777876709 | 15° C | 53% | 1019 hPa | 0 mm | - | - | - |
| 1777876111 | 14.44° C | 55% | 1018.9 hPa | 0 mm | - | - | - |
| 1777875530 | 14.44° C | 56% | 1018.8 hPa | 0 mm | - | - | - |
| 1777874918 | 13.89° C | 58% | 1018.8 hPa | 0 mm | - | - | - |
| 1777874316 | 13.89° C | 58% | 1018.8 hPa | 0 mm | - | - | - |
| 1777873734 | 13.89° C | 58% | 1018.8 hPa | 0 mm | - | - | - |
* Rain since midnight (hover to see other rain measurements)
** Current wind speed in m/s (hover to see current wind gust speed)